Vorticity
nan nan nan nan nan nan nan nan nan nan nan nan nan nan nan nan nan nan nan nan nan nan nan nan nan nan nan nan nan nan nan nan nan nan nan nan nan nan nan nan nan nan nan nan nan
nan 4 4 6 6 8 9 7 5 5 9 11 8 7 8 12 16 10 8 6 5 15 17 7 6 8 6 9 9 8 7 10 6 5 8 3 8 7 9 2 12 7 5 12 nan
nan 6 6 6 5 6 8 7 6 5 8 13 8 6 8 14 12 12 8 7 13 13 10 8 8 10 8 5 6 7 7 7 6 6 7 7 6 10 11 6 15 10 0 3 nan
nan 8 6 6 6 6 6 9 8 6 7 11 8 7 14 13 6 8 4 6 11 9 5 7 7 5 9 11 3 3 9 3 5 6 7 10 6 5 8 10 18 14 5 3 nan
nan 15 6 6 7 6 6 9 10 7 6 7 9 12 13 8 8 6 7 8 9 7 4 8 5 9 8 9 9 7 12 8 5 7 2 7 10 9 8 9 12 13 9 5 nan
nan 17 6 8 7 6 7 6 9 7 7 8 9 12 9 5 8 8 13 9 8 7 8 7 4 8 15 12 7 10 14 10 6 4 2 7 6 12 8 9 17 12 1 3 nan
nan 26 6 7 5 8 7 6 9 6 7 9 11 10 7 8 4 6 10 11 8 7 9 8 7 4 15 17 16 11 7 7 13 9 8 8 3 5 9 12 14 14 7 6 nan
nan 29 8 5 6 8 9 8 7 7 9 10 11 10 5 9 8 7 6 9 8 8 10 10 8 8 6 16 24 9 7 11 13 9 4 14 7 4 11 13 9 11 15 11 nan
nan 27 6 3 8 9 9 8 8 13 13 10 9 7 5 9 11 8 8 7 9 10 10 7 7 12 9 11 10 14 10 4 11 15 2 10 11 6 12 10 6 8 10 10 nan
nan 26 6 6 8 8 8 10 15 14 9 8 5 5 12 10 8 9 9 8 9 10 10 8 5 12 9 3 15 12 6 11 14 7 4 9 7 5 9 10 6 4 8 9 nan
nan 24 7 5 7 6 9 10 11 10 12 7 4 3 7 10 9 8 9 10 10 9 9 7 10 11 11 5 18 12 5 3 15 15 9 5 2 2 6 9 9 6 6 7 nan
nan 24 7 8 8 7 6 7 5 8 14 8 6 8 10 8 7 10 10 9 9 7 9 7 10 12 5 11 18 9 9 4 6 7 10 9 9 7 9 10 6 8 9 9 nan
nan 23 12 8 6 8 6 6 7 8 9 11 11 8 12 7 6 11 9 8 9 10 7 7 10 9 5 13 6 8 8 10 4 7 10 8 10 10 10 7 5 8 10 9 nan
nan 27 19 4 7 7 9 12 9 7 7 9 9 11 9 8 10 8 9 11 8 8 7 13 13 7 6 10 7 9 12 11 5 1 5 8 11 11 15 7 4 7 8 7 nan
nan 36 21 0 1 8 12 11 7 9 5 12 9 10 8 6 10 11 10 7 7 8 9 13 10 4 7 3 7 19 16 6 3 6 6 6 9 12 12 12 9 10 11 8 nan
nan 41 4 -2 3 12 12 5 4 13 8 10 12 7 6 9 9 7 9 8 10 11 10 8 8 9 10 10 10 11 5 6 10 9 12 8 4 6 7 11 11 16 18 13 nan
nan 32 -1 0 9 13 5 6 11 7 10 12 10 10 7 9 11 9 11 10 8 8 7 8 7 9 8 10 18 9 3 8 8 8 7 8 12 7 5 11 14 13 10 12 nan
nan 17 -1 3 11 8 5 8 10 8 9 9 11 8 8 8 7 11 13 11 11 8 9 6 9 10 9 12 7 1 11 8 10 8 7 8 9 10 11 12 13 13 11 6 nan
nan -0 7 10 9 5 9 10 13 10 10 7 7 7 8 11 9 7 8 8 8 10 10 8 13 9 7 9 9 7 10 12 8 8 9 8 8 9 8 8 9 10 9 8 nan
nan 9 10 11 6 6 8 8 13 11 9 9 9 9 9 8 8 8 10 10 10 9 11 7 3 6 12 10 10 14 6 8 10 11 6 12 11 6 5 7 8 8 6 8 nan
nan 9 9 8 7 9 9 10 9 9 8 11 9 9 9 9 9 9 10 9 9 11 12 8 7 10 9 10 7 7 10 12 13 8 10 9 6 9 10 9 7 7 8 8 nan
nan 11 10 9 9 8 10 12 8 9 7 10 10 10 10 8 8 11 10 6 9 12 9 11 8 11 9 8 10 10 9 11 9 7 8 10 4 13 15 12 8 7 8 8 nan
nan 10 9 9 12 8 10 11 10 10 10 9 9 9 10 10 8 9 8 8 10 14 13 10 6 5 6 13 15 11 9 10 8 12 11 9 8 7 10 9 9 8 7 8 nan
nan 9 8 9 9 10 12 8 9 10 11 8 10 9 9 8 11 12 7 8 10 7 11 14 13 14 12 8 10 9 8 7 8 12 13 6 12 7 7 6 6 7 8 7 nan
nan 10 13 12 8 9 9 11 10 8 9 9 9 11 10 8 10 11 9 9 7 9 13 9 8 7 9 12 12 12 11 8 8 10 13 15 11 11 9 7 7 6 6 7 nan
nan 9 10 12 14 10 9 12 7 10 11 12 10 9 11 11 11 10 9 10 8 10 10 11 12 6 4 9 12 10 11 11 9 9 11 13 8 13 11 10 9 7 6 6 nan
nan nan nan nan nan nan nan nan nan nan nan nan nan nan nan nan nan nan nan nan nan nan nan nan nan nan nan nan nan nan nan nan nan nan nan nan nan nan nan nan nan nan nan nan nan
CAPE
6 8 11 13 5 19 36 25 23 13 8 47 15 32 1 6 11 0 0 0 0 1 10 0 0 0 0 32 122 233 175 69 53 3 0 0 0 5 8 37 34 0 0 18 1
10 11 18 14 12 11 31 32 26 19 11 10 24 51 3 3 0 0 0 1 68 66 39 4 0 0 3 18 36 75 50 2 0 0 0 0 0 3 329 204 356 2 114 41 2
15 15 21 15 12 9 17 29 30 10 11 18 29 40 1 0 0 0 19 51 54 63 0 0 4 15 10 6 22 18 2 0 34 17 12 0 0 33 309 205 381 11 103 0 1
54 17 17 17 20 9 10 15 30 22 1 44 22 23 0 0 0 0 40 13 30 38 15 4 14 36 31 20 0 41 0 37 43 79 307 127 6 14 399 162 245 174 244 185 28
230 14 13 18 19 11 4 10 18 22 3 30 38 5 0 0 0 0 61 0 65 98 21 13 5 26 22 18 28 86 18 45 104 238 392 152 39 0 40 242 540 474 389 240 33
201 8 7 25 12 15 9 5 32 21 1 8 35 0 0 0 0 0 0 0 2 46 97 53 11 29 0 17 93 30 10 49 173 99 323 151 7 0 2 115 868 386 441 384 206
170 13 8 16 24 15 14 14 14 31 2 4 36 0 0 0 0 0 0 0 0 39 86 53 29 33 32 20 0 40 55 25 86 107 225 62 33 0 0 419 705 608 428 417 360
54 8 9 13 11 17 8 14 16 21 6 4 22 0 0 0 0 0 0 0 0 49 88 61 32 36 17 14 35 46 35 37 29 154 199 14 2 0 0 112 341 204 319 298 352
53 4 6 4 6 12 2 5 0 19 7 8 0 0 0 0 0 0 0 0 0 16 56 42 24 35 32 1 11 12 0 2 1 47 0 4 21 0 0 0 0 0 0 218 319
15 10 3 0 10 4 0 0 0 15 0 0 0 0 0 0 0 0 1 0 18 21 50 39 30 37 4 2 0 13 0 1 3 22 17 0 0 0 0 0 0 0 0 0 0
5 13 3 0 0 0 0 0 0 0 0 0 0 0 0 0 0 3 4 0 10 22 18 32 34 13 1 2 0 0 0 0 18 27 31 3 0 0 0 0 0 0 0 0 0
9 16 7 28 3 2 0 0 0 0 0 0 0 0 0 0 2 22 2 6 5 9 14 23 39 0 17 8 3 0 0 0 9 23 9 1 1 0 0 0 0 0 0 0 0
35 40 17 19 20 2 0 0 0 0 0 0 0 0 0 0 0 14 1 11 15 20 14 16 7 0 2 0 25 0 0 3 2 10 6 0 3 4 0 0 0 0 0 0 0
54 48 22 21 5 0 0 0 0 0 0 0 0 0 0 0 12 36 16 0 4 8 8 8 13 1 0 0 0 1 0 0 4 0 1 0 3 4 1 0 0 0 0 0 0
29 60 28 7 0 0 0 0 0 0 0 0 0 0 0 1 1 25 12 15 7 3 15 13 13 6 0 2 1 0 0 0 3 16 8 2 1 0 0 0 0 0 0 0 0
17 54 37 18 0 0 0 0 0 0 0 0 0 0 0 4 3 0 12 9 9 19 20 17 6 1 0 4 0 0 0 0 0 1 0 0 0 0 0 0 0 0 0 0 0
44 28 38 8 0 0 0 0 0 0 0 0 0 0 0 0 11 5 8 17 26 3 2 5 8 0 9 1 0 0 0 0 0 0 0 0 0 0 0 0 0 0 0 0 0
69 35 27 3 0 0 0 0 0 0 0 0 0 0 0 0 0 4 10 15 0 0 9 0 0 0 0 0 1 0 0 0 0 0 0 0 0 0 0 0 0 0 0 0 0
26 28 24 11 0 0 0 0 0 0 0 0 0 0 0 0 0 2 0 12 3 0 0 6 1 1 0 0 0 0 0 0 0 0 0 0 0 0 0 0 0 0 0 0 0
14 10 23 0 0 0 0 0 0 0 0 0 0 0 0 0 0 0 0 0 0 0 0 0 6 0 0 0 0 0 0 0 0 0 0 0 0 0 0 0 0 0 0 0 0
13 19 10 0 3 5 0 0 0 0 0 0 0 0 0 0 0 0 0 0 0 0 0 0 0 0 0 0 0 0 0 0 0 0 0 0 0 0 0 0 0 0 0 0 0
24 5 1 0 37 1 0 0 0 0 0 0 0 0 0 0 0 0 0 0 0 0 0 0 0 0 0 0 0 0 0 0 0 0 0 0 0 0 0 0 0 0 0 0 0
13 16 2 6 8 2 0 0 0 0 0 0 0 0 0 0 0 0 0 0 0 0 0 0 0 0 0 0 0 0 0 0 0 0 0 0 0 0 0 0 0 0 0 0 0
7 1 20 19 0 0 0 0 0 0 0 0 0 0 0 0 0 0 0 0 0 0 0 0 0 0 0 0 0 0 0 0 0 0 0 0 0 0 0 0 0 0 0 0 0
7 5 10 7 8 0 0 0 0 0 0 0 0 0 0 0 0 0 0 0 0 0 0 0 0 0 0 0 0 0 0 0 0 0 0 0 0 0 0 0 0 0 0 0 0
5 1 0 0 0 0 0 0 0 0 0 0 0 0 0 0 0 0 0 0 0 0 0 0 0 0 0 0 0 0 0 0 0 0 0 0 0 0 0 0 0 0 0 0 0
0 0 0 2 0 0 0 1 1 0 0 0 0 0 0 0 0 0 0 0 0 0 0 0 0 0 0 0 0 0 0 0 0 0 0 0 0 0 0 0 0 0 0 0 0